Tracking 17142 objects as of 27-May-2015
HD Live streaming from Space Station

CZ-2D DEB

Track CZ-2D DEB now!
10-day predictions
CZ-2D DEB is classified as:


NORAD ID: 28742
Int'l Code: 2005-024F
Perigee: 529.7 km
Apogee: 715.0 km
Inclination: 97.6 °
Period: 97.0 minutes
Semi major axis: 6993 km
RCS: 0.0146 m2 (small)
Launch date: July 5, 2005
Source: People's Republic of China (PRC)

Note: This is SATELLITE DEBRIS
Your satellite tracking list
Your tracking list is empty





NASA's NSSDC Master Catalog

Two Line Element Set (TLE):
1 28742U 05024F   15145.72676084  .00005362  00000-0  55010-3 0  9990
2 28742 097.6163 319.7378 0132464 193.8626 165.8939 14.84473689524983

Source of the keplerian elements: AFSPC

N2YO: 468